QPF
0.00 0.00 0.00 0.00 0.01 0.00 0.01 0.03 0.04 0.02 0.01 0.01 0.00 0.01 0.01 0.02 0.04 0.03 0.04 0.06 0.05 0.04 0.05 0.09 0.16 0.22 0.24 0.21 0.16 0.12 0.09 0.08 0.08 0.06 0.05 0.04 0.03 0.03 0.04 0.05 0.08 0.09 0.09
0.00 0.00 0.00 0.00 0.00 0.01 0.02 0.02 0.04 0.03 0.01 0.01 0.02 0.01 0.01 0.01 0.02 0.02 0.02 0.03 0.02 0.02 0.04 0.07 0.12 0.15 0.17 0.17 0.14 0.11 0.09 0.07 0.07 0.07 0.06 0.05 0.04 0.03 0.04 0.05 0.06 0.08 0.07
0.00 0.00 0.01 0.01 0.00 0.01 0.02 0.03 0.06 0.07 0.02 0.04 0.04 0.03 0.02 0.02 0.02 0.02 0.02 0.02 0.02 0.03 0.04 0.06 0.11 0.18 0.23 0.21 0.16 0.13 0.09 0.06 0.07 0.07 0.07 0.06 0.05 0.04 0.05 0.05 0.06 0.05 0.05
0.01 0.01 0.01 0.01 0.01 0.01 0.03 0.05 0.10 0.16 0.09 0.07 0.07 0.06 0.04 0.04 0.04 0.04 0.04 0.03 0.02 0.02 0.03 0.05 0.10 0.19 0.28 0.26 0.17 0.14 0.11 0.09 0.07 0.06 0.06 0.06 0.07 0.09 0.08 0.06 0.05 0.04 0.04
0.01 0.01 0.01 0.01 0.01 0.03 0.05 0.07 0.09 0.18 0.19 0.11 0.08 0.07 0.06 0.05 0.05 0.06 0.05 0.02 0.01 0.01 0.02 0.04 0.07 0.14 0.23 0.26 0.16 0.14 0.12 0.10 0.08 0.06 0.05 0.05 0.07 0.09 0.09 0.06 0.04 0.04 0.04
0.01 0.01 0.01 0.00 0.01 0.02 0.05 0.08 0.09 0.14 0.23 0.18 0.11 0.09 0.06 0.05 0.06 0.05 0.03 0.02 0.02 0.02 0.02 0.03 0.04 0.11 0.21 0.20 0.13 0.11 0.09 0.08 0.09 0.09 0.08 0.08 0.09 0.10 0.08 0.06 0.04 0.05 0.04
0.01 0.01 0.01 0.00 0.00 0.02 0.03 0.06 0.08 0.10 0.19 0.19 0.13 0.10 0.07 0.05 0.05 0.05 0.04 0.02 0.03 0.04 0.04 0.03 0.04 0.10 0.19 0.20 0.17 0.12 0.08 0.08 0.08 0.09 0.08 0.09 0.12 0.10 0.08 0.06 0.05 0.05 0.05
0.01 0.01 0.00 0.00 0.00 0.01 0.02 0.03 0.06 0.08 0.11 0.13 0.11 0.09 0.08 0.06 0.05 0.05 0.04 0.03 0.02 0.03 0.04 0.05 0.05 0.07 0.13 0.14 0.13 0.10 0.07 0.07 0.06 0.06 0.08 0.10 0.12 0.08 0.06 0.05 0.05 0.05 0.06
0.01 0.01 0.00 0.00 0.00 0.00 0.01 0.01 0.03 0.06 0.08 0.09 0.09 0.06 0.06 0.06 0.06 0.06 0.04 0.03 0.02 0.02 0.02 0.04 0.04 0.03 0.03 0.05 0.07 0.07 0.07 0.07 0.06 0.07 0.11 0.11 0.07 0.04 0.03 0.03 0.04 0.05 0.05
0.01 0.01 0.00 0.00 0.00 0.00 0.00 0.01 0.01 0.02 0.04 0.06 0.06 0.05 0.05 0.06 0.05 0.05 0.04 0.04 0.02 0.01 0.01 0.01 0.02 0.01 0.02 0.02 0.04 0.05 0.07 0.06 0.06 0.07 0.09 0.07 0.03 0.02 0.01 0.02 0.03 0.04 0.05
0.02 0.01 0.00 0.00 0.00 0.00 0.00 0.00 0.00 0.00 0.01 0.02 0.03 0.04 0.05 0.05 0.04 0.03 0.03 0.03 0.03 0.02 0.01 0.01 0.02 0.01 0.01 0.01 0.01 0.02 0.03 0.03 0.04 0.05 0.04 0.03 0.02 0.02 0.02 0.03 0.02 0.04 0.05
0.03 0.02 0.01 0.00 0.00 0.00 0.00 0.00 0.00 0.00 0.00 0.00 0.01 0.01 0.02 0.03 0.03 0.02 0.02 0.02 0.02 0.03 0.02 0.02 0.02 0.01 0.01 0.00 0.00 0.00 0.01 0.01 0.01 0.02 0.02 0.01 0.02 0.03 0.03 0.03 0.02 0.02 0.03
0.04 0.03 0.02 0.01 0.00 0.00 0.00 0.00 0.00 0.00 0.00 0.00 0.00 0.00 0.00 0.01 0.02 0.02 0.01 0.01 0.01 0.01 0.01 0.01 0.01 0.01 0.00 0.00 0.00 0.00 0.00 0.01 0.01 0.01 0.01 0.01 0.01 0.03 0.03 0.03 0.02 0.01 0.02
0.03 0.03 0.02 0.01 0.01 0.00 0.00 0.00 0.00 0.00 0.00 0.00 0.00 0.00 0.00 0.01 0.01 0.01 0.01 0.01 0.00 0.00 0.00 0.00 0.00 0.00 0.00 0.00 0.00 0.00 0.00 0.01 0.01 0.01 0.00 0.00 0.00 0.01 0.03 0.02 0.01 0.01 0.01
0.05 0.05 0.03 0.02 0.02 0.01 0.00 0.00 0.00 0.00 0.00 0.00 0.00 0.00 0.01 0.00 0.01 0.01 0.01 0.01 0.01 0.01 0.00 0.00 0.00 0.00 0.00 0.00 0.00 0.00 0.01 0.01 0.01 0.01 0.00 0.01 0.01 0.01 0.01 0.02 0.01 0.01 0.01
0.08 0.08 0.07 0.05 0.05 0.04 0.02 0.01 0.01 0.01 0.00 0.00 0.00 0.00 0.00 0.00 0.00 0.00 0.01 0.01 0.01 0.01 0.00 0.00 0.00 0.00 0.00 0.00 0.00 0.00 0.01 0.01 0.01 0.01 0.01 0.01 0.01 0.01 0.01 0.01 0.01 0.01 0.01
0.04 0.06 0.07 0.07 0.06 0.04 0.03 0.02 0.01 0.01 0.00 0.00 0.00 0.00 0.00 0.01 0.00 0.01 0.01 0.01 0.01 0.01 0.00 0.00 0.00 0.00 0.00 0.00 0.00 0.00 0.01 0.01 0.01 0.01 0.02 0.02 0.02 0.02 0.02 0.01 0.01 0.01 0.01
0.04 0.07 0.10 0.09 0.07 0.06 0.04 0.03 0.02 0.01 0.01 0.01 0.00 0.00 0.00 0.00 0.00 0.01 0.01 0.01 0.01 0.01 0.00 0.00 0.00 0.00 0.00 0.00 0.00 0.00 0.01 0.01 0.01 0.02 0.03 0.03 0.04 0.04 0.03 0.02 0.02 0.01 0.01
0.04 0.06 0.09 0.13 0.12 0.10 0.07 0.05 0.04 0.03 0.02 0.01 0.00 0.00 0.00 0.00 0.00 0.01 0.01 0.01 0.01 0.00 0.00 0.01 0.00 0.00 0.00 0.01 0.01 0.01 0.01 0.01 0.02 0.02 0.03 0.04 0.07 0.06 0.05 0.04 0.03 0.02 0.01
0.03 0.05 0.07 0.10 0.12 0.11 0.10 0.07 0.06 0.04 0.03 0.02 0.01 0.01 0.01 0.01 0.01 0.01 0.01 0.01 0.01 0.00 0.00 0.00 0.01 0.01 0.01 0.01 0.02 0.01 0.01 0.01 0.01 0.02 0.02 0.04 0.06 0.09 0.07 0.07 0.05 0.03 0.02
0.03 0.04 0.05 0.06 0.10 0.12 0.12 0.10 0.08 0.06 0.04 0.03 0.01 0.01 0.01 0.02 0.01 0.02 0.01 0.01 0.01 0.00 0.00 0.01 0.01 0.01 0.01 0.01 0.01 0.01 0.01 0.01 0.01 0.01 0.01 0.02 0.04 0.05 0.05 0.07 0.08 0.05 0.03
0.03 0.03 0.03 0.04 0.06 0.09 0.14 0.15 0.12 0.10 0.07 0.04 0.02 0.02 0.03 0.03 0.02 0.02 0.02 0.01 0.01 0.01 0.01 0.01 0.01 0.01 0.00 0.00 0.01 0.01 0.01 0.01 0.01 0.02 0.02 0.02 0.03 0.04 0.04 0.05 0.07 0.06 0.03
0.03 0.02 0.03 0.03 0.03 0.05 0.09 0.13 0.14 0.12 0.10 0.07 0.04 0.02 0.02 0.02 0.02 0.02 0.02 0.01 0.02 0.02 0.01 0.01 0.01 0.00 0.00 0.00 0.00 0.00 0.00 0.00 0.01 0.01 0.02 0.02 0.02 0.03 0.04 0.04 0.04 0.04 0.02
0.05 0.05 0.05 0.05 0.05 0.05 0.06 0.09 0.14 0.13 0.10 0.09 0.07 0.04 0.02 0.02 0.02 0.02 0.02 0.02 0.02 0.01 0.01 0.01 0.00 0.00 0.00 0.00 0.00 0.00 0.00 0.00 0.00 0.00 0.01 0.01 0.01 0.02 0.03 0.04 0.03 0.02 0.01
0.04 0.05 0.06 0.07 0.08 0.08 0.07 0.07 0.09 0.11 0.11 0.10 0.08 0.06 0.05 0.03 0.03 0.03 0.02 0.02 0.01 0.01 0.01 0.01 0.01 0.00 0.00 0.00 0.00 0.00 0.01 0.01 0.01 0.01 0.00 0.01 0.01 0.01 0.01 0.02 0.03 0.03 0.02
0.04 0.04 0.04 0.05 0.05 0.05 0.05 0.05 0.06 0.07 0.10 0.10 0.10 0.08 0.07 0.06 0.05 0.03 0.02 0.02 0.01 0.01 0.02 0.02 0.01 0.01 0.01 0.01 0.01 0.01 0.01 0.01 0.01 0.01 0.00 0.01 0.01 0.01 0.01 0.02 0.02 0.02 0.01
MSLP
1016.22 1016.35 1016.44 1016.49 1016.52 1016.54 1016.57 1016.60 1016.66 1016.73 1016.80 1016.86 1016.90 1016.92 1016.90 1016.85 1016.79 1016.70 1016.61 1016.53 1016.46 1016.41 1016.39 1016.42 1016.49 1016.60 1016.76 1016.95 1017.14 1017.31 1017.46 1017.55 1017.59 1017.57 1017.51 1017.43 1017.34 1017.26 1017.21 1017.20 1017.22 1017.27 1017.34
1016.21 1016.32 1016.41 1016.49 1016.57 1016.64 1016.71 1016.79 1016.86 1016.94 1017.01 1017.07 1017.11 1017.12 1017.11 1017.08 1017.03 1016.97 1016.90 1016.83 1016.77 1016.74 1016.73 1016.77 1016.85 1016.97 1017.13 1017.30 1017.47 1017.62 1017.72 1017.77 1017.77 1017.71 1017.62 1017.52 1017.42 1017.35 1017.31 1017.31 1017.35 1017.43 1017.52
1016.13 1016.22 1016.33 1016.45 1016.59 1016.73 1016.86 1016.99 1017.10 1017.19 1017.26 1017.31 1017.34 1017.35 1017.35 1017.33 1017.29 1017.24 1017.19 1017.14 1017.09 1017.06 1017.06 1017.10 1017.17 1017.28 1017.42 1017.57 1017.70 1017.80 1017.86 1017.86 1017.81 1017.72 1017.60 1017.49 1017.39 1017.34 1017.33 1017.37 1017.45 1017.57 1017.72
1015.99 1016.08 1016.21 1016.39 1016.60 1016.81 1017.01 1017.19 1017.34 1017.44 1017.51 1017.56 1017.58 1017.58 1017.58 1017.57 1017.55 1017.52 1017.48 1017.43 1017.39 1017.36 1017.35 1017.38 1017.44 1017.53 1017.64 1017.75 1017.85 1017.91 1017.91 1017.87 1017.77 1017.65 1017.51 1017.39 1017.31 1017.28 1017.31 1017.40 1017.54 1017.73 1017.94
1015.83 1015.92 1016.08 1016.31 1016.58 1016.87 1017.13 1017.36 1017.54 1017.66 1017.73 1017.76 1017.78 1017.78 1017.78 1017.78 1017.78 1017.76 1017.74 1017.70 1017.66 1017.63 1017.61 1017.62 1017.66 1017.73 1017.82 1017.90 1017.97 1017.99 1017.96 1017.88 1017.75 1017.59 1017.44 1017.32 1017.25 1017.25 1017.32 1017.46 1017.67 1017.91 1018.18
1015.66 1015.75 1015.94 1016.21 1016.54 1016.88 1017.19 1017.46 1017.66 1017.79 1017.86 1017.90 1017.91 1017.92 1017.93 1017.96 1017.97 1017.98 1017.97 1017.94 1017.90 1017.86 1017.83 1017.83 1017.86 1017.92 1017.99 1018.07 1018.12 1018.12 1018.08 1017.97 1017.82 1017.65 1017.48 1017.36 1017.30 1017.32 1017.42 1017.61 1017.86 1018.15 1018.47
1015.49 1015.58 1015.78 1016.08 1016.44 1016.81 1017.16 1017.45 1017.67 1017.81 1017.89 1017.93 1017.96 1017.99 1018.03 1018.08 1018.12 1018.15 1018.16 1018.14 1018.10 1018.05 1018.02 1018.01 1018.03 1018.10 1018.18 1018.26 1018.33 1018.34 1018.30 1018.20 1018.04 1017.87 1017.70 1017.58 1017.52 1017.54 1017.66 1017.86 1018.13 1018.45 1018.79
1015.35 1015.42 1015.62 1015.91 1016.28 1016.66 1017.01 1017.31 1017.54 1017.69 1017.79 1017.86 1017.92 1017.98 1018.07 1018.15 1018.23 1018.29 1018.31 1018.29 1018.25 1018.20 1018.16 1018.14 1018.18 1018.25 1018.36 1018.48 1018.57 1018.62 1018.61 1018.54 1018.41 1018.25 1018.09 1017.97 1017.91 1017.93 1018.04 1018.23 1018.50 1018.81 1019.15
1015.24 1015.28 1015.44 1015.71 1016.05 1016.41 1016.76 1017.05 1017.28 1017.45 1017.57 1017.68 1017.79 1017.91 1018.04 1018.17 1018.29 1018.37 1018.40 1018.39 1018.34 1018.28 1018.22 1018.21 1018.25 1018.34 1018.48 1018.64 1018.79 1018.90 1018.94 1018.92 1018.84 1018.72 1018.58 1018.47 1018.41 1018.42 1018.51 1018.68 1018.92 1019.21 1019.52
1015.18 1015.16 1015.27 1015.48 1015.77 1016.09 1016.40 1016.68 1016.91 1017.09 1017.25 1017.41 1017.57 1017.75 1017.94 1018.13 1018.28 1018.39 1018.43 1018.41 1018.34 1018.26 1018.19 1018.16 1018.20 1018.31 1018.48 1018.68 1018.88 1019.06 1019.17 1019.22 1019.21 1019.14 1019.06 1018.98 1018.93 1018.94 1019.01 1019.16 1019.36 1019.60 1019.88
1015.17 1015.08 1015.11 1015.25 1015.46 1015.72 1015.98 1016.22 1016.45 1016.65 1016.84 1017.05 1017.27 1017.52 1017.76 1018.00 1018.19 1018.31 1018.35 1018.32 1018.24 1018.13 1018.04 1017.99 1018.02 1018.13 1018.31 1018.54 1018.79 1019.02 1019.20 1019.33 1019.39 1019.41 1019.39 1019.36 1019.35 1019.38 1019.46 1019.58 1019.75 1019.96 1020.20
1015.22 1015.05 1014.99 1015.03 1015.15 1015.32 1015.52 1015.72 1015.92 1016.13 1016.36 1016.60 1016.88 1017.18 1017.48 1017.75 1017.97 1018.11 1018.15 1018.12 1018.02 1017.89 1017.77 1017.70 1017.71 1017.80 1017.97 1018.21 1018.48 1018.75 1018.99 1019.18 1019.32 1019.42 1019.49 1019.54 1019.59 1019.67 1019.77 1019.90 1020.06 1020.25 1020.45
1015.34 1015.07 1014.91 1014.85 1014.86 1014.94 1015.06 1015.20 1015.37 1015.57 1015.80 1016.07 1016.38 1016.71 1017.05 1017.36 1017.60 1017.76 1017.82 1017.79 1017.68 1017.55 1017.42 1017.32 1017.31 1017.37 1017.52 1017.74 1018.00 1018.28 1018.55 1018.79 1019.00 1019.18 1019.34 1019.48 1019.61 1019.76 1019.91 1020.08 1020.25 1020.44 1020.63
1015.52 1015.16 1014.90 1014.73 1014.64 1014.61 1014.63 1014.70 1014.81 1014.97 1015.18 1015.45 1015.77 1016.12 1016.47 1016.80 1017.07 1017.25 1017.34 1017.33 1017.25 1017.14 1017.01 1016.92 1016.88 1016.92 1017.04 1017.22 1017.45 1017.71 1017.98 1018.24 1018.50 1018.75 1018.98 1019.21 1019.44 1019.67 1019.89 1020.11 1020.32 1020.53 1020.73
1015.77 1015.34 1014.98 1014.70 1014.49 1014.35 1014.27 1014.24 1014.27 1014.37 1014.54 1014.77 1015.06 1015.40 1015.75 1016.08 1016.37 1016.58 1016.71 1016.76 1016.74 1016.67 1016.59 1016.52 1016.50 1016.53 1016.61 1016.75 1016.94 1017.16 1017.40 1017.66 1017.94 1018.23 1018.52 1018.83 1019.14 1019.44 1019.74 1020.02 1020.28 1020.52 1020.74
1016.10 1015.60 1015.15 1014.77 1014.45 1014.19 1014.00 1013.86 1013.80 1013.80 1013.89 1014.06 1014.30 1014.59 1014.91 1015.24 1015.53 1015.78 1015.96 1016.08 1016.14 1016.17 1016.17 1016.17 1016.18 1016.23 1016.30 1016.42 1016.56 1016.73 1016.94 1017.17 1017.44 1017.73 1018.06 1018.41 1018.78 1019.14 1019.49 1019.83 1020.13 1020.40 1020.65
1016.51 1015.94 1015.42 1014.95 1014.52 1014.16 1013.84 1013.60 1013.42 1013.32 1013.31 1013.38 1013.53 1013.75 1014.02 1014.31 1014.60 1014.87 1015.11 1015.31 1015.47 1015.60 1015.72 1015.82 1015.91 1016.01 1016.11 1016.22 1016.34 1016.47 1016.64 1016.83 1017.07 1017.35 1017.68 1018.04 1018.42 1018.81 1019.19 1019.55 1019.88 1020.17 1020.44
1016.97 1016.36 1015.77 1015.22 1014.70 1014.23 1013.82 1013.46 1013.17 1012.96 1012.83 1012.79 1012.84 1012.96 1013.14 1013.37 1013.63 1013.90 1014.17 1014.44 1014.71 1014.95 1015.19 1015.41 1015.60 1015.78 1015.94 1016.08 1016.21 1016.33 1016.47 1016.63 1016.83 1017.08 1017.37 1017.71 1018.08 1018.46 1018.83 1019.19 1019.52 1019.82 1020.09
1017.45 1016.80 1016.17 1015.55 1014.96 1014.41 1013.90 1013.45 1013.05 1012.73 1012.49 1012.34 1012.26 1012.27 1012.35 1012.49 1012.68 1012.92 1013.20 1013.51 1013.83 1014.17 1014.51 1014.85 1015.16 1015.43 1015.67 1015.87 1016.04 1016.18 1016.32 1016.46 1016.64 1016.85 1017.11 1017.40 1017.72 1018.06 1018.40 1018.72 1019.03 1019.31 1019.58
1017.91 1017.24 1016.57 1015.91 1015.27 1014.65 1014.08 1013.55 1013.07 1012.66 1012.32 1012.05 1011.86 1011.74 1011.70 1011.72 1011.82 1011.99 1012.22 1012.51 1012.85 1013.24 1013.64 1014.06 1014.46 1014.84 1015.17 1015.45 1015.68 1015.87 1016.04 1016.20 1016.37 1016.56 1016.78 1017.03 1017.30 1017.58 1017.86 1018.13 1018.40 1018.65 1018.91
1018.31 1017.62 1016.93 1016.24 1015.56 1014.91 1014.29 1013.71 1013.18 1012.70 1012.28 1011.92 1011.62 1011.38 1011.21 1011.11 1011.08 1011.14 1011.27 1011.49 1011.79 1012.15 1012.57 1013.02 1013.48 1013.92 1014.33 1014.70 1015.01 1015.27 1015.50 1015.70 1015.89 1016.09 1016.29 1016.50 1016.72 1016.95 1017.18 1017.40 1017.62 1017.85 1018.09
1018.61 1017.91 1017.20 1016.50 1015.81 1015.14 1014.50 1013.90 1013.33 1012.81 1012.34 1011.91 1011.52 1011.18 1010.89 1010.66 1010.49 1010.40 1010.40 1010.50 1010.69 1010.97 1011.33 1011.76 1012.22 1012.69 1013.15 1013.58 1013.97 1014.32 1014.62 1014.89 1015.13 1015.35 1015.57 1015.77 1015.97 1016.16 1016.35 1016.53 1016.72 1016.92 1017.15
1018.79 1018.08 1017.38 1016.68 1015.98 1015.31 1014.66 1014.05 1013.47 1012.93 1012.43 1011.96 1011.51 1011.09 1010.70 1010.35 1010.04 1009.80 1009.64 1009.58 1009.62 1009.77 1010.02 1010.36 1010.77 1011.22 1011.69 1012.16 1012.60 1013.02 1013.41 1013.75 1014.06 1014.34 1014.59 1014.82 1015.02 1015.21 1015.38 1015.55 1015.72 1015.91 1016.14
1018.87 1018.17 1017.46 1016.76 1016.06 1015.39 1014.74 1014.12 1013.55 1013.00 1012.48 1011.99 1011.51 1011.04 1010.57 1010.12 1009.70 1009.32 1009.01 1008.78 1008.65 1008.64 1008.74 1008.95 1009.26 1009.64 1010.08 1010.55 1011.02 1011.49 1011.94 1012.36 1012.75 1013.09 1013.40 1013.67 1013.91 1014.11 1014.30 1014.48 1014.66 1014.86 1015.09
1018.89 1018.20 1017.49 1016.79 1016.09 1015.40 1014.75 1014.12 1013.53 1012.98 1012.45 1011.94 1011.44 1010.94 1010.43 1009.92 1009.41 1008.93 1008.49 1008.12 1007.84 1007.66 1007.61 1007.67 1007.85 1008.14 1008.50 1008.93 1009.40 1009.88 1010.37 1010.84 1011.29 1011.70 1012.07 1012.40 1012.68 1012.93 1013.15 1013.36 1013.56 1013.79 1014.04
1018.92 1018.23 1017.52 1016.81 1016.10 1015.39 1014.71 1014.05 1013.44 1012.86 1012.31 1011.79 1011.27 1010.75 1010.22 1009.67 1009.12 1008.57 1008.04 1007.57 1007.17 1006.86 1006.67 1006.59 1006.65 1006.82 1007.09 1007.45 1007.87 1008.34 1008.83 1009.32 1009.81 1010.26 1010.68 1011.06 1011.40 1011.70 1011.96 1012.21 1012.45 1012.70 1012.98
Thickness
5725 5725 5724 5724 5723 5723 5723 5722 5721 5720 5720 5719 5718 5718 5718 5718 5718 5719 5719 5721 5722 5722 5722 5722 5722 5722 5721 5720 5719 5717 5717 5716 5716 5716 5715 5715 5715 5715 5715 5715 5715 5715 5715
5722 5721 5721 5720 5719 5719 5718 5717 5716 5715 5715 5714 5713 5713 5712 5713 5713 5713 5714 5715 5715 5716 5716 5716 5716 5716 5716 5714 5713 5712 5711 5711 5710 5710 5710 5710 5710 5710 5710 5710 5710 5710 5710
5719 5718 5717 5716 5716 5715 5714 5713 5712 5711 5710 5709 5708 5707 5707 5707 5707 5707 5708 5708 5709 5709 5710 5710 5710 5710 5710 5709 5708 5707 5706 5705 5705 5705 5705 5705 5705 5705 5705 5705 5705 5705 5705
5716 5715 5714 5713 5712 5712 5710 5709 5707 5706 5704 5703 5702 5702 5701 5701 5701 5701 5701 5702 5702 5702 5703 5703 5704 5704 5704 5704 5703 5702 5700 5699 5699 5699 5700 5700 5700 5700 5700 5700 5700 5699 5700
5714 5713 5711 5710 5709 5708 5706 5705 5703 5701 5699 5698 5697 5696 5696 5695 5695 5695 5695 5695 5695 5695 5696 5696 5697 5698 5698 5697 5697 5696 5695 5694 5693 5693 5694 5694 5695 5695 5695 5694 5694 5694 5694
5711 5710 5708 5706 5705 5704 5702 5701 5698 5697 5695 5694 5694 5691 5690 5690 5689 5689 5689 5689 5689 5689 5689 5689 5689 5690 5691 5691 5691 5689 5689 5688 5688 5688 5688 5688 5689 5689 5689 5689 5688 5689 5689
5708 5707 5705 5703 5702 5700 5698 5697 5695 5692 5690 5689 5687 5684 5684 5684 5683 5683 5683 5683 5682 5682 5682 5682 5682 5682 5682 5682 5682 5682 5682 5682 5682 5682 5682 5683 5683 5683 5683 5683 5683 5683 5683
5704 5704 5702 5700 5698 5696 5694 5693 5691 5687 5685 5684 5681 5677 5673 5674 5676 5677 5677 5677 5676 5676 5676 5676 5676 5675 5675 5675 5675 5675 5676 5676 5676 5677 5677 5677 5677 5677 5677 5677 5677 5676 5676
5701 5700 5699 5697 5695 5693 5691 5690 5688 5686 5681 5679 5678 5674 5668 5665 5665 5669 5670 5670 5670 5669 5669 5669 5669 5669 5668 5668 5668 5669 5669 5670 5671 5671 5672 5672 5671 5671 5671 5670 5670 5670 5669
5697 5696 5695 5694 5692 5690 5688 5687 5686 5684 5681 5676 5673 5671 5669 5666 5662 5660 5662 5663 5663 5663 5662 5663 5663 5663 5663 5662 5662 5663 5663 5664 5665 5665 5665 5666 5665 5665 5665 5665 5664 5664 5663
5692 5691 5691 5690 5688 5687 5685 5684 5681 5680 5678 5674 5670 5667 5664 5661 5659 5656 5654 5655 5655 5656 5656 5656 5657 5657 5656 5656 5656 5656 5657 5658 5658 5658 5659 5660 5660 5660 5659 5658 5658 5658 5657
5686 5686 5686 5685 5684 5683 5682 5680 5678 5676 5674 5671 5668 5665 5662 5659 5655 5652 5649 5648 5648 5649 5650 5650 5650 5650 5650 5650 5650 5650 5651 5651 5652 5652 5653 5654 5654 5654 5653 5653 5652 5652 5651
5680 5681 5682 5681 5680 5679 5678 5677 5674 5672 5670 5667 5665 5662 5660 5658 5656 5651 5647 5643 5642 5643 5643 5645 5645 5644 5644 5644 5644 5645 5645 5645 5646 5646 5647 5647 5648 5647 5647 5647 5646 5646 5645
5677 5678 5677 5676 5676 5675 5674 5672 5670 5669 5666 5664 5662 5659 5657 5655 5653 5650 5646 5641 5637 5636 5636 5638 5639 5638 5638 5638 5638 5639 5639 5639 5640 5640 5641 5641 5642 5642 5641 5641 5640 5640 5639
5674 5674 5673 5672 5671 5670 5669 5668 5666 5664 5662 5660 5658 5655 5653 5651 5649 5647 5645 5642 5636 5632 5631 5632 5632 5633 5633 5633 5633 5633 5633 5633 5633 5634 5635 5636 5636 5636 5635 5635 5634 5634 5633
5669 5668 5668 5667 5666 5665 5664 5663 5661 5659 5658 5656 5654 5651 5649 5647 5645 5643 5641 5638 5635 5631 5627 5628 5627 5627 5627 5628 5628 5628 5627 5627 5627 5628 5629 5629 5630 5630 5629 5628 5628 5627 5626
5664 5663 5663 5662 5661 5659 5659 5657 5656 5654 5653 5651 5650 5647 5645 5643 5640 5638 5635 5633 5630 5628 5624 5623 5622 5622 5622 5622 5622 5622 5622 5622 5621 5621 5622 5622 5623 5623 5623 5622 5622 5621 5621
5657 5657 5656 5655 5654 5654 5654 5652 5651 5649 5647 5646 5645 5643 5640 5639 5636 5633 5631 5628 5626 5624 5621 5618 5616 5616 5616 5616 5616 5616 5616 5616 5615 5615 5615 5615 5616 5616 5616 5616 5615 5615 5614
5650 5650 5649 5649 5648 5648 5647 5647 5646 5645 5643 5642 5641 5639 5637 5634 5631 5629 5627 5624 5622 5620 5617 5614 5612 5610 5609 5609 5609 5609 5609 5608 5609 5608 5608 5608 5608 5608 5609 5609 5609 5608 5608
5642 5642 5642 5642 5642 5642 5641 5640 5640 5639 5638 5637 5636 5635 5633 5631 5629 5626 5624 5621 5618 5615 5612 5609 5606 5604 5603 5602 5602 5601 5601 5601 5601 5601 5601 5600 5600 5601 5601 5602 5602 5602 5601
5635 5635 5634 5634 5635 5635 5635 5634 5633 5633 5632 5630 5630 5629 5629 5627 5626 5624 5622 5618 5615 5611 5607 5604 5601 5599 5597 5595 5595 5595 5594 5594 5593 5593 5593 5593 5593 5594 5594 5594 5595 5595 5595
5627 5627 5627 5627 5627 5628 5629 5629 5628 5626 5625 5624 5623 5623 5623 5622 5621 5620 5618 5616 5614 5609 5605 5601 5597 5595 5594 5592 5591 5589 5587 5586 5586 5586 5585 5584 5585 5586 5587 5587 5588 5588 5588
5618 5618 5618 5619 5619 5620 5622 5622 5622 5620 5619 5618 5617 5617 5617 5617 5615 5613 5612 5611 5609 5607 5606 5602 5597 5595 5593 5591 5588 5585 5582 5581 5580 5579 5578 5577 5578 5578 5580 5580 5581 5581 5581
5610 5610 5610 5611 5611 5613 5614 5615 5615 5613 5612 5612 5612 5612 5611 5610 5610 5608 5606 5603 5602 5601 5600 5598 5597 5595 5593 5590 5587 5584 5581 5576 5574 5572 5572 5570 5571 5571 5573 5573 5574 5574 5574
5602 5602 5602 5603 5604 5605 5607 5607 5607 5605 5605 5604 5605 5605 5605 5604 5604 5602 5600 5598 5596 5595 5595 5594 5593 5590 5588 5586 5583 5578 5574 5571 5569 5567 5565 5564 5565 5564 5565 5566 5567 5567 5567
5594 5594 5594 5595 5596 5596 5598 5600 5600 5598 5597 5597 5597 5597 5598 5598 5598 5596 5594 5592 5590 5589 5588 5587 5585 5583 5581 5579 5577 5574 5571 5567 5564 5562 5561 5559 5558 5557 5558 5560 5559 5559 5559